Regional Weather Roundup
Issued by NWS

Home | Current Version | Previous Version | Graphics & Text | Print | Product List | Glossary On
Versions: 1 2 3 4 5 6 7 8 9 10 11 12 13 14 15 16 17 18 19 20 21 22 23 24 25 26 27
000
ASUS45 KBOU 300007
RWRCO

WEATHER ROUNDUP FOR COLORADO
NATIONAL WEATHER SERVICE DENVER/BOULDER CO
600 PM MDT WED MAR 29 2017

NOTE: "FAIR" INDICATES FEW OR NO CLOUDS BELOW 12000 FEET WITH NO
SIGNIFICANT WEATHER AND/OR OBSTRUCTIONS TO VISIBILITY.

COZ001>005-013-030-031-300100-
...NORTHWEST COLORADO...

CITY           SKY/WX    TMP DP  RH WIND       PRES   REMARKS
CRAIG          FAIR      52  26  36 SW14      30.06F
HAYDEN         FAIR      48  25  40 W9        30.07F
MEEKER         FAIR      52  27  38 SE8       30.06F
MOUNT WERNER   NOT AVBL
STEAMBOAT SPGS FAIR      48  28  44 SW10      30.07R
WALDEN         NOT AVBL
$$

COZ006>008-011-300100-
...WEST CENTRAL VALLEYS...

CITY           SKY/WX    TMP DP  RH WIND       PRES   REMARKS
GRAND JUNCTION FAIR      62  22  21 SW5       30.01F
MONTROSE       FAIR      57  22  25 W3        30.04F
EAGLE          MOSUNNY   55  27  33 W10       30.04F
RIFLE          FAIR      59  25  27 NW9G17    30.03F
DELTA          FAIR      65  15  14 NW13      30.01S
NUCLA          FAIR      59  21  23 NW15G25   30.07S
$$

COZ017>023-064>068-300100-
...SOUTHWEST COLORADO...

CITY           SKY/WX    TMP DP  RH WIND       PRES   REMARKS
DURANGO        FAIR      60   4  10 NW14      29.96R
CORTEZ         FAIR      61  22  22 N14G21    30.00S
PAGOSA SPRINGS FAIR      56   8  15 N7        30.01R
TELLURIDE      FAIR      42  17  35 NW5       30.14S
WOLF CREEK PAS FAIR      32   9  37 N9G18     30.19S WCI  24
$$

COZ009-010-012-014-032>034-037-058>063-300100-
...CENTRAL COLORADO...

CITY           SKY/WX    TMP DP  RH WIND       PRES   REMARKS
ASPEN          FAIR      50  24  36 N12G18    30.05F
BUENA VISTA    FAIR      51   8  18 NW17      30.02R
COPPER MTN     FAIR      32  16  51 MISG      30.15S
BERTHOUD PASS  FAIR      19  10  68 NW29G36   30.12S HAZE    WCI   1
COTTONWOOD PAS FAIR      45   5  19 W14G24    30.07F
GUNNISON       FAIR      50  22  33 NW12      30.05S
KREMMLING      FAIR      54  23  30 NW9       30.07F
LEADVILLE      FAIR      38  11  32 NW12G20   30.09R
MONARCH PASS   FAIR      32  14  47 W13G22    30.25S WCI  22
SALIDA         FAIR      57   6  12 N16       30.06S
SUNLIGHT       FAIR      32  19  59 W7        30.20F WCI  26
WILKERSON PASS FAIR      32  18  55 NW5       30.14R WCI  27
$$

COZ069>075-300100-
...SAN LUIS VALLEY/SANGRE DE CRISTO MOUNTAINS...

CITY           SKY/WX    TMP DP  RH WIND       PRES   REMARKS
ALAMOSA        FAIR      52  17  25 NW15      29.98R
LA VETA PASS   NOT AVBL
SAGUACHE       FAIR      54  10  17 NW21G26   30.00S
$$

COZ035-036-038>040-300100-
...NORTHERN COLORADO FRONT RANGE...

CITY           SKY/WX    TMP DP  RH WIND       PRES   REMARKS
DENVER INTL AP FAIR      56  27  32 N15       29.96S
DMNS CITY PARK   N/A     56  26  30 NE10G16   29.97S
AURORA         MOSUNNY   55  28  36 N12       29.98S
FRONT RANGE AP MOSUNNY   55  36  47 NE14G28   29.97S
ERIE MUNI ARPT FAIR      59  25  26 NE12      29.95
BOULDER MUN AP FAIR      59  27  29 CALM      29.96S
CENTENNIAL     FAIR      54  28  36 N16       29.98S
BROOMFIELD     MOSUNNY   55  27  33 N12       29.99S
FORT COLLINS   FAIR      61  28  28 N18       29.94F
LONGMONT       FAIR      63  25  24 CALM      29.96F
$$

COZ041-046-047-076>085-087-088-300100-
...PIKES PEAK/PALMER DIVIDE AND SOUTHERN FOOTHILLS...

CITY           SKY/WX    TMP DP  RH WIND       PRES   REMARKS
COLO. SPRINGS  FAIR      52  28  39 N22       29.98S
A. F. ACADEMY  MOSUNNY   49  30  46 N18       29.98S
SCHRIEVER AFB  FAIR      49  27  41 N23G32    29.99S
ELLICOTT       FAIR     N/A N/A N/A NE21G26   29.97S
FALCON         FAIR      48  26  42 N16G23    30.01S
FORT CARSON    SUNNY     55  28  36 MISG      29.96S
LIMON          FAIR      48  35  60 N16       29.97S
MONUMENT HILL  FAIR      45  28  53 N18       30.02R
TRINIDAD       FAIR      47  33  58 N10       30.01S
$$

COZ042>045-048>051-090-091-300100-
...NORTHEAST COLORADO...

CITY           SKY/WX    TMP DP  RH WIND       PRES   REMARKS
GREELEY ARPT   FAIR      60  25  26 N17G24    29.94
AKRON          FAIR      49  35  58 NE17      29.96S
BURLINGTON     CLOUDY    44  39  82 N16       29.94S
WRAY           NOT AVBL
STERLING       FAIR      52  37  58 NE10G20   29.95S
HOLYOKE        PTSUNNY   48  37  66 N12       29.97R
FORT MORGAN    FAIR      55  31  38 N15G23    29.96S
$$

COZ086-089-092>099-300100-
...SOUTHEAST COLORADO...

CITY           SKY/WX    TMP DP  RH WIND       PRES   REMARKS
PUEBLO         FAIR      58  32  37 NE17      29.95R
LA JUNTA       CLOUDY    52  37  56 NE15      29.97S
LAMAR          PTSUNNY   49  38  65 N13       29.93F
SPRINGFIELD      N/A     44  37  76 N16G25    29.93F
$$




USA.gov is the U.S. government's official web portal to all federal, state and local government web resources and services.